Location: Unspecified
(0.0000°N, 0.0000°E)
Time: 23:07:02
(UTC+00:00)

Vanguard 2 - Pass Details

Date: 06 October 2020
Orbit: 554 x 2937 km, 32.9° (Epoch: 28 October)

Event Time Altitude Azimuth Distance (km) Brightness Sun altitude
Rises 17:43:59 0° 211° (SSW) 5,187 12.3 1.0°
Reaches altitude 10° 17:49:54 10° 188° (S) 4,709 11.7 -0.5°
Maximum altitude 17:56:30 14° 159° (SSE) 4,801 11.4 -2.1°
Drops below altitude 10° 18:04:04 10° 131° (SE) 5,551 11.5 -4.0°
Sets 18:12:23 0° 110° (ESE) 6,774 11.8 -6.1°
Enters shadow 18:12:29 - 110° (ESE) 6,789 11.8 -6.1°
